Weather in Sheremetyevo

Russia / Penza Oblast     53°10′30″N   43°04′16″E
temp.,
°C
wind,
m/s
gust,
m/s
humid.,
%
clouds,
%
prec.,
mm/h
press.,
hPa
HPBL,
m
28 february, sun
sun2800:00−13nnw379698 0.1 1012184
03:00−15nw349788 0.1 101371
06:00−15nw339866 0.0 101472
09:00−14nw369777 0.1 1015250
12:00−11nw3592100 0.0 1015408
15:00−9nnw3690100 0.1 1016574
18:00−11nnw2395100 0.1 101723
21:00−13nnw239695 0.1 102025
1 march, mon
mon100:00−14n229772 0.0 102120
03:00−16nnw229647 0.0 102320
06:00−16nnw22961 0.0 102320
09:00−14nw12963 0.0 102555
12:00−10w229126 0.0 1025206
15:00−8wsw359454 0.0 1024267
18:00−9sw349786 0.0 102370
21:00−7wsw5129688 0.1 1021294
2 march, tue
tue200:00−4wsw61394100 0.2 1018466
03:00−3wsw71496100 1.0 1014493
06:00−2wsw81596100 0.9 1010605
09:000w81498100 2.1 1007778
12:000wnw71298100 1.4 1005661
15:000nw61192100 2.5 1005809
18:00−3wnw4119197 0.5 1006215
21:00−3wnw5129494 0.6 1007423
3 march, wed
wed300:00−3nw6129599 0.1 1007524
03:00−4wnw5109598 0.3 1008438
06:00−5nw5129598 0.3 1009496
09:00−5nw7129298 0.5 1010701
12:00−4nw71189100 0.1 1012879
15:00−4nw71189100 0.3 10131027
18:00−6nw5128996 0.1 1014407
21:00−8nw4109389 0.1 1017227
4 march, thu
thu400:00−10wnw369626 0.0 1018120
03:00−10w349755 0.1 101858
06:00−8wsw489686 0.1 1018152
09:00−6wsw5119467 0.1 1017311
12:00−2wsw7138986 0.0 1015636
15:00−1wsw7148693 0.0 1013664
18:00−2sw71685100 0.0 1011573
21:00−2sw7178599 0.0 1009625